Home > Time Zones > World Clock > Weather > Iran > Tehran > Past weeks

Flag for Iran Weather past 2 weeks in Tehran, Iran

Now
99 °F

Passing clouds.


Feels Like: 93 °F
Forecast: 79 / 100 °F
Wind: 5 mph from West

Location: Tehran-Mehrabad

Current Time: Jul 3, 2015 at 9:07:11 PM

Latest Report: Jul 3, 2015 at 8:30 PM


Visibility: N/A

Pressure: 29.95 "Hg (26.30 "Hg at 1179m altitude)

Humidity: 9%

Dew point: 30 °F

Location of TehranLocation

Historic Weather in Tehran — Graph

°F

Tehran temperature yesterday

Maximum temperature yesterday: 100 °F (at 3:30 PM)
Minimum temperature yesterday: 81 °F (at 6:00 AM)
Average temperature yesterday: 92 °F

Past Weeks' High & Low Weather Summary

 TemperatureHumidityPressure
High106 °F (Jun 30, 1:30 PM)44% (Jun 24, 6:30 AM)30.12 "Hg (Jun 24, 6:30 AM)
Low73 °F (Jun 24, 6:00 AM)6% (Jun 20, 4:30 PM)29.56 "Hg (Jun 26, 5:00 PM)
Average91 °F14%29.81 "Hg
* Reported Jun 18 7:30 PM — Jul 3 8:00 PM, Tehran, Weather by CustomWeather, © 2015

Note: Actual official high and low records may vary slightly from our data, if they occured in-between our weather recording intervals... More about our weather records

Advertising

Tehran weather history for previous 24 hours

 ConditionsComfort  
Time TempWeatherWind HumidityBarometerVisibility
8:00 PM
Fri, Jul 3
99 °FPassing clouds.7 mph9%29.92 "HgN/A
7:30 PM99 °FPassing clouds.7 mph9%29.92 "HgN/A
7:00 PM99 °FPassing clouds.7 mph9%29.92 "HgN/A
6:30 PM100 °FPassing clouds.7 mph9%29.92 "HgN/A
6:00 PM100 °FPassing clouds.12 mph9%29.92 "HgN/A
5:30 PM100 °FPassing clouds.14 mph9%29.92 "HgN/A
5:00 PM100 °FPassing clouds.7 mph9%29.92 "HgN/A
4:30 PM100 °FPassing clouds.7 mph9%29.92 "HgN/A
4:00 PM99 °FPassing clouds.7 mph10%29.95 "HgN/A
3:30 PM100 °FPassing clouds.9 mph10%29.95 "HgN/A
3:00 PM100 °FPassing clouds.12 mph10%29.95 "HgN/A
2:30 PM100 °FPassing clouds.12 mph10%29.95 "HgN/A
2:00 PM99 °FPassing clouds.9 mph12%29.98 "HgN/A
1:30 PM97 °FPassing clouds.12 mph13%29.98 "HgN/A
1:00 PM97 °FPassing clouds.7 mph12%30.01 "HgN/A
12:30 PM97 °FPassing clouds.12 mph13%30.01 "HgN/A
12:00 PM95 °FPassing clouds.5 mph11%30.01 "HgN/A
11:30 AM95 °FPassing clouds.12 mph11%30.01 "HgN/A
11:00 AM93 °FPassing clouds.9 mph13%30.04 "HgN/A
10:30 AM93 °FPassing clouds.5 mph14%30.04 "HgN/A
10:00 AM91 °FPassing clouds.9 mph16%30.04 "HgN/A
9:30 AM91 °FPassing clouds.5 mph16%30.04 "HgN/A
9:00 AM91 °FScattered clouds.5 mph16%30.04 "HgN/A
8:30 AM91 °FScattered clouds.No wind15%30.04 "HgN/A
8:00 AM88 °FSunny.5 mph19%30.04 "Hg10 mi
7:30 AM86 °FSunny.5 mph19%30.04 "Hg10 mi
6:50 AM82 °FClear.No wind25%30.01 "Hg10 mi
6:30 AM82 °FClear.No wind25%30.01 "Hg10 mi
6:00 AM81 °FClear.7 mph28%30.01 "Hg10 mi
5:30 AM82 °FClear.7 mph23%30.01 "Hg10 mi
5:00 AM82 °FClear.No wind23%29.98 "Hg10 mi
4:25 AM82 °FClear.No wind25%29.98 "Hg10 mi
4:00 AM84 °FClear.5 mph19%29.98 "Hg10 mi
3:30 AM84 °FClear.5 mph19%29.98 "Hg10 mi
3:00 AM86 °FClear.No wind18%30.01 "Hg10 mi
2:30 AM90 °FClear.9 mph16%30.01 "Hg10 mi
2:00 AM91 °FPassing clouds.7 mph14%30.01 "HgN/A
1:30 AM90 °FPassing clouds.5 mph15%30.01 "HgN/A
1:00 AM90 °FPassing clouds.5 mph17%30.01 "HgN/A
12:30 AM91 °FPassing clouds.5 mph15%30.01 "HgN/A
12:00 AM91 °FPassing clouds.7 mph15%30.01 "HgN/A
11:30 PM
Thu, Jul 2
90 °FPassing clouds.5 mph16%30.01 "HgN/A
11:00 PM90 °FPassing clouds.5 mph17%30.01 "HgN/A
10:30 PM90 °FPassing clouds.5 mph17%30.01 "HgN/A
10:00 PM91 °FPassing clouds.5 mph14%29.98 "HgN/A
9:30 PM91 °FPassing clouds.5 mph14%29.98 "HgN/A
Weather by CustomWeather, © 2015

See weather overviewHow to use our weather pages